Location: Baix
(44.7118°N, 4.7648°E)
Time: 14:32:42
(UTC+00:00)

Explorer 11/Cluster Stage 4 - Pass Details

Date: 01 December 2020
Orbit: 467 x 1258 km, 28.8° (Epoch: 14 January)

Event Time Altitude Azimuth Distance (km) Brightness Sun altitude
Rises 22:36:38 0° 246° (WSW) 3,799 - -64.7°
Reaches altitude 10° 22:40:40 10° 227° (SW) 2,674 - -65.1°
Maximum altitude 22:44:20 16° 192° (SSW) 2,109 - -65.4°
Drops below altitude 10° 22:47:38 10° 155° (SSE) 2,336 - -65.6°
Sets 22:50:48 0° 134° (SE) 3,096 - -65.9°
